CW0454 Weather Reports


Display with metric or nautical units.
time (UTC)temp
F
wind
direction
speed
MPH
gust
MPH
rain 1hr
in
rain 24hr
in
rain mn
in
humidity
%
barometer
mb
20260902083403 73 66 0.0 0.0 0.00 0.00 0.00 92 1016.5
20260902082403 73 66 0.0 0.0 0.00 0.00 0.00 92 1016.4
20260902081402 74 66 0.0 0.0 0.00 0.00 0.00 92 1016.4
20260902080403 74 66 0.0 0.0 0.00 0.00 0.00 92 1016.4
20260902075403 74 66 0.0 0.0 0.00 0.00 0.00 91 1016.3
20260902074402 75 66 0.0 0.0 0.00 0.00 0.00 91 1016.3
20260902073424 75 66 0.0 0.0 0.00 0.00 0.00 90 1016.2
20260902072403 75 66 0.0 0.0 0.00 0.00 0.00 90 1016.2
20260902071402 75 66 0.0 1.0 0.00 0.00 0.00 89 1016.1
20260902070403 76 66 0.0 2.0 0.00 0.00 0.00 89 1015.8
20260902065402 76 66 0.0 2.0 0.00 0.00 0.00 89 1015.8
20260902064403 76 66 0.0 4.0 0.00 0.00 0.00 89 1015.8
20260902063403 77 57 1.0 5.0 0.00 0.00 0.00 89 1015.6
20260902062402 77 9 2.0 4.0 0.00 0.00 0.00 89 1015.4
20260902061400 78 53 0.0 2.0 0.00 0.00 0.00 89 1015.3
20260902060400 78 56 2.0 3.0 0.00 0.00 0.00 89 1015.4
20260902055400 78 57 2.0 3.0 0.00 0.00 0.00 88 1015.4
20260902054400 78 58 1.0 6.0 0.00 0.00 0.00 87 1015.5
20260902053359 79 40 2.0 5.0 0.00 0.00 0.00 87 1015.5
20260902052400 79 41 2.0 6.0 0.00 0.00 0.00 86 1015.6
20260902051420 79 19 4.0 11.0 0.00 0.00 0.00 85 1015.8
20260902050400 79 16 1.0 4.0 0.00 0.00 0.00 84 1016.1
20260902045421 79 5 1.0 2.0 0.00 0.00 0.00 84 1015.4
20260902044421 79 5 0.0 3.0 0.00 0.00 0.00 84 1015.4
20260902043400 80 5 0.0 6.0 0.00 0.00 0.00 84 1015.4
20260902042400 80 30 2.0 4.0 0.00 0.00 0.00 83 1015.4
20260902041400 81 34 3.0 7.0 0.00 0.00 0.00 83 1015.3
20260902040400 81 24 4.0 10.0 0.00 0.00 0.00 83 1015.2
20260902035400 82 51 3.0 10.0 0.00 0.00 0.00 83 1015.0
20260902034400 82 13 2.0 4.0 0.00 0.00 0.00 84 1014.8
20260902033400 82 14 1.0 4.0 0.00 0.00 0.00 83 1014.6
20260902032421 83 15 0.0 5.0 0.00 0.00 0.00 82 1014.5
20260902031400 83 42 1.0 7.0 0.00 0.00 0.00 81 1014.4
20260902030421 83 40 2.0 6.0 0.00 0.00 0.00 80 1014.4
20260902025400 83 328 3.0 4.0 0.00 0.00 0.00 78 1014.0
20260902024400 83 251 1.0 4.0 0.00 0.00 0.00 78 1013.5
20260902023400 84 237 1.0 3.0 0.00 0.00 0.00 77 1013.5
20260902022400 84 237 1.0 4.0 0.00 0.00 0.00 76 1013.5
20260902021401 84 212 2.0 7.0 0.00 0.00 0.00 76 1013.5
20260902020400 84 166 1.0 8.0 0.00 0.00 0.00 77 1013.3
20260902015421 83 180 1.0 9.0 0.00 0.00 0.00 80 1013.2
20260902014400 82 231 2.0 6.0 0.00 0.00 0.00 83 1013.1
20260902013400 81 213 1.0 9.0 0.00 0.00 0.00 84 1013.0
20260902012400 81 192 1.0 3.0 0.00 0.00 0.00 86 1012.9
20260902011400 81 194 1.0 4.0 0.00 0.00 0.00 87 1012.7
20260902010401 82 194 0.0 2.0 0.00 0.00 0.00 87 1013.0
20260902005400 82 195 0.0 1.0 0.00 0.00 0.00 86 1013.0
20260902004401 82 195 0.0 1.0 0.00 0.00 0.00 86 1012.9
20260902003400 83 194 0.0 2.0 0.00 0.00 0.00 86 1012.5
20260902002401 83 195 0.0 2.0 0.00 0.00 0.00 85 1012.3
20260902001400 84 194 0.0 1.0 0.00 0.00 0.00 84 1011.8
20260902000400 85 194 1.0 2.0 0.00 0.00 0.00 84 1011.6
20260901235400 85 194 0.0 1.0 0.00 0.00 0.00 84 1011.9
20260901234400 86 195 0.0 0.0 0.00 0.00 0.00 83 1012.1
20260901233400 86 195 0.0 0.0 0.00 0.00 0.00 81 1012.1
20260901232400 87 195 0.0 2.0 0.00 0.00 0.00 79 1012.1
20260901231422 87 194 0.0 1.0 0.00 0.00 0.00 76 1012.1
20260901230401 88 195 0.0 0.0 0.00 0.00 0.00 75 1012.2
20260901225401 89 195 0.0 2.0 0.00 0.00 0.00 74 1012.2
20260901224400 89 196 1.0 5.0 0.00 0.00 0.00 75 1012.3
20260901223401 90 207 0.0 5.0 0.00 0.00 0.00 75 1012.4
20260901222400 90 92 0.0 3.0 0.00 0.00 0.00 74 1012.3
20260901221401 91 108 1.0 3.0 0.00 0.00 0.00 73 1012.4
20260901220400 91 107 0.0 3.0 0.00 0.00 0.00 71 1012.5
20260901215401 91 109 0.0 3.0 0.00 0.00 0.00 70 1012.4
20260901214401 92 108 0.0 2.0 0.00 0.00 0.00 67 1012.5
20260901213422 93 107 2.0 4.0 0.00 0.00 0.00 69 1012.4
20260901212422 93 44 1.0 4.0 0.00 0.00 0.00 67 1012.6
20260901211400 93 263 2.0 4.0 0.00 0.00 0.00 65 1012.7
20260901210401 93 251 0.0 7.0 0.00 0.00 0.00 63 1012.7
20260901205422 94 230 2.0 6.0 0.00 0.00 0.00 58 1012.8
20260901204401 94 285 2.0 4.0 0.00 0.00 0.00 62 1012.8
20260901203400 95 289 1.0 8.0 0.00 0.00 0.00 58 1012.8
20260901202401 95 223 2.0 8.0 0.00 0.00 0.00 57 1012.8
20260901201401 95 308 2.0 6.0 0.00 0.00 0.00 61 1013.0
20260901200401 95 235 3.0 6.0 0.00 0.00 0.00 59 1013.1
20260901195422 95 262 2.0 6.0 0.00 0.00 0.00 61 1013.2
20260901194401 95 248 3.0 10.0 0.00 0.00 0.00 61 1013.3
20260901193401 95 243 2.0 7.0 0.00 0.00 0.00 60 1013.4
20260901192402 94 267 3.0 11.0 0.00 0.00 0.00 58 1013.6
20260901191401 94 210 3.0 9.0 0.00 0.00 0.00 59 1013.7
20260901190401 95 251 1.0 6.0 0.00 0.00 0.00 65 1013.8
20260901185401 95 247 1.0 8.0 0.00 0.00 0.00 62 1013.9
20260901184401 94 256 2.0 8.0 0.00 0.00 0.00 64 1013.9
20260901183402 94 263 3.0 11.0 0.00 0.00 0.00 63 1013.8
20260901182401 94 230 1.0 9.0 0.00 0.00 0.00 64 1013.9
20260901181402 94 263 2.0 6.0 0.00 0.00 0.00 65 1013.8
20260901180401 92 258 1.0 7.0 0.00 0.00 0.00 66 1013.9
20260901175402 92 271 2.0 6.0 0.00 0.00 0.00 68 1014.0
20260901174423 91 266 1.0 7.0 0.00 0.00 0.00 70 1014.2
20260901173401 89 250 1.0 7.0 0.00 0.00 0.00 70 1014.2
20260901172402 89 247 3.0 7.0 0.00 0.00 0.00 73 1014.2
20260901171401 89 241 1.0 5.0 0.00 0.00 0.00 72 1014.1
20260901170423 89 200 2.0 5.0 0.00 0.00 0.00 72 1014.2
20260901165401 90 202 2.0 8.0 0.00 0.00 0.00 68 1014.4
20260901164402 90 249 2.0 7.0 0.00 0.00 0.00 70 1014.5
20260901163401 90 209 3.0 9.0 0.00 0.00 0.00 70 1014.5
20260901162402 90 198 1.0 8.0 0.00 0.00 0.00 70 1014.6
20260901161401 90 250 2.0 8.0 0.00 0.00 0.00 70 1014.7
20260901160402 90 258 3.0 7.0 0.00 0.00 0.00 70 1014.8
20260901155401 89 203 2.0 5.0 0.00 0.00 0.00 71 1014.8
20260901154402 89 266 2.0 8.0 0.00 0.00 0.00 71 1014.9
20260901152401 88 208 3.0 7.0 0.00 0.00 0.00 74 1015.3
20260901151402 87 267 3.0 11.0 0.00 0.00 0.00 74 1015.3
20260901150402 87 250 4.0 8.0 0.00 0.00 0.00 76 1015.4
20260901145403 86 257 2.0 7.0 0.00 0.00 0.00 78 1015.4
20260901144402 85 243 1.0 5.0 0.00 0.00 0.00 79 1015.4
20260901143402 84 245 3.0 5.0 0.00 0.00 0.00 82 1015.5
20260901142444 84 243 2.0 4.0 0.00 0.00 0.00 83 1015.5
20260901141423 84 213 1.0 6.0 0.00 0.00 0.00 83 1015.5
20260901140402 84 233 1.0 7.0 0.00 0.00 0.00 83 1015.4
20260901135402 83 127 2.0 7.0 0.00 0.00 0.00 85 1015.4
20260901134404 83 260 1.0 4.0 0.00 0.00 0.00 87 1015.2
20260901133402 82 286 1.0 3.0 0.00 0.00 0.00 86 1015.4
20260901132403 82 287 1.0 7.0 0.00 0.00 0.00 88 1015.4
20260901131402 81 227 2.0 5.0 0.00 0.00 0.00 89 1015.5
20260901130405 80 233 2.0 7.0 0.00 0.00 0.00 91 1015.7
20260901125403 79 241 1.0 8.0 0.00 0.00 0.00 93 1015.7
20260901124402 78 187 2.0 8.0 0.00 0.00 0.00 95 1016.0
20260901123402 77 243 1.0 5.0 0.00 0.00 0.00 96 1016.1
20260901122402 76 231 1.0 4.0 0.00 0.00 0.00 97 1016.0
20260901121402 76 209 2.0 4.0 0.00 0.00 0.00 98 1016.0
20260901120402 75 178 1.0 5.0 0.00 0.00 0.00 98 1015.8
20260901115402 75 125 1.0 4.0 0.00 0.00 0.00 98 1015.6
20260901114403 74 109 0.0 2.0 0.00 0.00 0.00 98 1015.5
20260901113402 74 109 0.0 3.0 0.00 0.00 0.00 98 1015.5
20260901112403 73 98 0.0 1.0 0.00 0.00 0.00 98 1015.6
20260901111402 73 101 0.0 1.0 0.00 0.00 0.00 97 1015.7
20260901110404 73 101 0.0 0.0 0.00 0.00 0.00 97 1015.7
20260901105424 73 101 0.0 0.0 0.00 0.00 0.00 97 1015.7
20260901104423 73 101 0.0 0.0 0.00 0.00 0.00 97 1015.7
20260901103403 73 101 0.0 2.0 0.00 0.00 0.00 97 1015.6
20260901102427 73 101 0.0 0.0 0.00 0.00 0.00 97 1015.6
20260901101402 73 101 0.0 0.0 0.00 0.00 0.00 97 1015.4
20260901100403 73 101 0.0 0.0 0.00 0.00 0.00 97 1015.3
20260901095403 73 101 0.0 0.0 0.00 0.00 0.00 97 1015.3
20260901094424 73 101 0.0 0.0 0.00 0.00 0.00 97 1015.3
20260901093402 74 101 0.0 1.0 0.00 0.00 0.00 97 1015.4
20260901092403 73 101 0.0 0.0 0.00 0.00 0.00 97 1015.6
20260901091402 73 101 0.0 0.0 0.00 0.00 0.00 97 1015.6
20260901090404 73 101 0.0 0.0 0.00 0.00 0.00 97 1015.6
20260901085403 73 101 0.0 1.0 0.00 0.00 0.00 97 1015.6
20260901084402 73 101 0.0 1.0 0.00 0.00 0.00 97 1015.5